{"data":{"norad_id":57913,"intl_designator":"2023-147A","name":"STARLINK-30450","alt_names":[],"object_type":"PAYLOAD","status":"ACTIVE","operator":null,"country":"US","launch_date":"2023-09-24","launch_site_code":"AFETR","launch_vehicle":null,"mission":null,"orbit_class":"UNKNOWN","rcs_meters":null,"size_class":null,"mass_kg":null,"dimensions":null,"purposes":["comms"],"wikipedia_slug":null,"has_3d_model":false,"image_url":null,"decayed_at":null,"tle_current":{"epoch":"2026-05-25T00:15:39.098880Z","epoch_age_seconds":70258,"freshness":"FRESH","line1":"1 57913U 23147A   26145.01086920  .00000922  00000+0  43010-4 0  9990","line2":"2 57913  43.0046 253.9077 0001412 265.6646  94.4045 15.27580202148270","mean_motion":15.27580202,"eccentricity":0.0001412,"inclination_deg":43.0046,"raan_deg":253.9077,"arg_perigee_deg":265.6646,"mean_anomaly_deg":94.4045,"bstar":4.301e-5,"rev_number":14827,"period_min":94.266736248261,"perigee_km":482.0796917877,"apogee_km":484.01729057041,"semimajor_km":6861.1854911791,"source":"CELESTRAK","updated_at":"2026-05-25T13:38:18.456244Z"}}}